星链-1017 (STARLINK-1017 )

导读

STARLINK-1017是美国SpaceX星链计划中的卫星,于2019年11月11日发射,是星链早期组网批次的卫星之一。星链计划旨在构建全球卫星互联网星座,该卫星承担低轨通信测试与初期组网任务,为后续大规模星座部署和全球宽带服务提供技术验证与基础链路支撑。

基本信息
目录编号:
44723
目录名称:
STARLINK-1017
国际标识:
2019-074L
轨道中心:
EARTH
卫星名称:
星链-1017
卫星全名:
星链-1017 (STARLINK-1017 )
卫星状态:
在轨 (已飞行2496 天)
发射日期:
2019-11-11 UTC
国别 :
美国 (US)
星等 :
--
轨道信息
数据来源 国际轨道数据
星历时间: 2026-09-10T22:38:11+0800
15小时前
查看轨道信息
半长轴: 6828.165km
偏心率: 0.0002464
轨道倾角: 53.045°
近地点辐角 319.941°
升交点赤经 28.490°
平近点角 40.141°
近地点: 448.345km
远地点: 451.711km
周期: 93.587分钟
每日圈数: 15.386747
详细信息
固有亮度:
5
最大亮度:
2.5
卫星平台:
Starlink V1.0
覆盖范围:
全球
运营商:
太空探索技术公司
运营商所在国:
美国
制造商(研发单位):
太空探索技术公司
制造商所在国:
美国
使用方式:
暂无
卫星简介
星链(Starlink)计划是由太空探索技术公司(SpaceX)提出的一个巨型低轨卫星互联网星座项目,计划在2019年至2024年间在太空搭建由约1.2万颗卫星组成的“星链”网络,其中1584颗将部署在地球上空550千米处的近地轨道,并从2020年开始工作。该卫星仍在工作。
2D轨道图
3D轨道图
轨道高度分析图
轨道倾角分析图
轨道综合分析图
查看轨道综合分析图
与全量物体交会距离演化趋势
与全量物体交会风险概率演化趋势